Date String (YYYY-MM-DD hh:mm:ss) UTC,Instrument flags,Ambient pressure (hPa),Sample flow (lpm),Bypass flow (lpm),Sample temperature (°C),Ambient temperature (°C),ASC tube jacket temperature (°C),LED temperature (°C),Box temperature (°C),Sample RH (%),Span deviation,Mass concentration (μg/m³),Mass concentration (μg/m³),Mass concentration (μg/m³)
DateTimeUTC,F1_M11,P_M11,Q1_M11,Q2_M11,T1_M11,T2_M11,T3_M11,T4_M11,T5_M11,U1_M11,ZSPAN_M11,X0_M11,X2_M11,X1_M11
2022-03-15 06:00:00,,0830.8,5.01,0.00,26.6,25.7,00.0,35.5,28.4,06.8,0000.0,0011.40,0003.35,0001.69
2022-03-15 06:01:00,,0830.8,4.98,0.00,26.6,25.7,00.0,35.5,28.4,06.9,0000.0,0012.07,0003.38,0001.70
2022-03-15 06:02:00,,0830.8,5.00,0.00,26.6,25.7,00.0,35.5,28.4,06.9,0000.0,0012.93,0003.39,0001.71
2022-03-15 06:03:00,,0830.8,5.01,0.00,26.6,25.7,00.0,35.5,28.4,06.9,0000.0,0012.46,0003.29,0001.71
2022-03-15 06:04:00,,0830.9,5.00,0.00,26.6,25.7,00.0,35.5,28.4,07.1,0000.0,0011.70,0003.24,0001.73
2022-03-15 06:05:00,,0830.9,4.99,0.00,26.6,25.7,00.0,35.5,28.4,07.2,0000.0,0010.58,0003.21,0001.73
2022-03-15 06:06:00,,0830.8,5.00,0.00,26.6,25.7,00.0,35.5,28.4,07.2,0000.0,0010.32,0003.18,0001.75
2022-03-15 06:07:00,,0830.8,5.00,0.00,26.6,25.7,00.0,35.5,28.3,07.1,0000.0,0010.27,0003.16,0001.76
2022-03-15 06:08:00,,0830.8,5.00,0.00,26.6,25.7,00.0,35.5,28.3,07.2,0000.0,0010.19,0003.11,0001.77
2022-03-15 06:09:00,,0830.8,5.00,0.00,26.6,25.7,00.0,35.5,28.3,07.1,0000.0,0009.86,0003.11,0001.80
2022-03-15 06:10:00,,0830.7,4.99,0.00,26.6,25.7,00.0,35.5,28.3,07.1,0000.0,0009.77,0003.12,0001.82
2022-03-15 06:11:00,,0830.7,5.00,0.00,26.5,25.7,00.0,35.5,28.3,07.2,0000.0,0009.25,0003.11,0001.83
2022-03-15 06:12:00,,0830.7,5.01,0.00,26.5,25.7,00.0,35.5,28.3,07.2,0000.0,0008.54,0003.05,0001.84
2022-03-15 06:13:00,,0830.7,5.00,0.00,26.5,25.7,00.0,35.5,28.3,07.2,0000.0,0007.45,0003.04,0001.85
2022-03-15 06:14:00,,0830.7,4.99,0.00,26.5,25.7,00.0,35.5,28.3,07.2,0000.0,0006.84,0003.09,0001.85
2022-03-15 06:15:00,,0830.7,5.00,0.00,26.5,25.6,00.0,35.5,28.3,07.2,0000.0,0008.56,0003.08,0001.84
2022-03-15 06:16:00,,0830.7,5.01,0.00,26.5,25.6,00.0,35.5,28.3,07.2,0000.0,0008.63,0003.11,0001.83
2022-03-15 06:17:00,,0830.7,5.00,0.00,26.5,25.6,00.0,35.5,28.3,07.1,0000.0,0008.62,0003.12,0001.81
2022-03-15 06:18:00,,0830.7,5.00,0.00,26.5,25.6,00.0,35.4,28.3,07.1,0000.0,0008.38,0003.12,0001.79
2022-03-15 06:19:00,,0830.7,5.00,0.00,26.5,25.6,00.0,35.4,28.3,07.2,0000.0,0008.60,0003.12,0001.79
2022-03-15 06:20:00,,0830.7,4.98,0.00,26.5,25.6,00.0,35.4,28.3,07.3,0000.0,0008.93,0003.10,0001.79
2022-03-15 06:21:00,,0830.7,5.00,0.00,26.5,25.6,00.0,35.4,28.3,07.2,0000.0,0009.01,0003.10,0001.78
2022-03-15 06:22:00,,0830.7,5.00,0.00,26.5,25.6,00.0,35.4,28.3,07.2,0000.0,0009.09,0003.08,0001.79
2022-03-15 06:23:00,,0830.8,5.01,0.00,26.5,25.6,00.0,35.4,28.3,07.3,0000.0,0009.49,0003.07,0001.78
2022-03-15 06:24:00,,0830.7,5.01,0.00,26.5,25.6,00.0,35.4,28.3,07.3,0000.0,0009.44,0003.07,0001.78
2022-03-15 06:25:00,,0830.7,4.98,0.00,26.5,25.6,00.0,35.4,28.3,07.4,0000.0,0009.46,0003.08,0001.81
2022-03-15 06:26:00,,0830.7,5.00,0.00,26.5,25.6,00.0,35.4,28.2,07.4,0000.0,0008.99,0003.06,0001.83
2022-03-15 06:27:00,,0830.7,4.99,0.00,26.5,25.6,00.0,35.4,28.2,07.5,0000.0,0008.94,0003.06,0001.86
2022-03-15 06:28:00,,0830.7,5.01,0.00,26.5,25.6,00.0,35.4,28.2,07.6,0000.0,0008.86,0003.06,0001.89
2022-03-15 06:29:00,,0830.7,5.01,0.00,26.4,25.6,00.0,35.4,28.2,07.5,0000.0,0008.83,0003.03,0001.92
2022-03-15 06:30:00,,0830.7,5.00,0.00,26.4,25.5,00.0,35.4,28.2,07.5,0000.0,0008.34,0003.01,0001.94
2022-03-15 06:31:00,,0830.7,4.99,0.00,26.4,25.5,00.0,35.4,28.2,07.5,0000.0,0008.02,0002.99,0001.95
2022-03-15 06:32:00,,0830.7,4.99,0.00,26.4,25.5,00.0,35.4,28.2,07.5,0000.0,0007.96,0003.03,0001.96
2022-03-15 06:33:00,,0830.7,5.00,0.00,26.4,25.5,00.0,35.4,28.2,07.5,0000.0,0007.91,0003.04,0001.96
2022-03-15 06:34:00,,0830.7,5.01,0.00,26.4,25.5,00.0,35.4,28.2,07.4,0000.0,0007.44,0003.05,0001.97
2022-03-15 06:35:00,,0830.7,5.01,0.00,26.4,25.5,00.0,35.4,28.2,07.3,0000.0,0007.60,0003.01,0001.99
2022-03-15 06:36:00,,0830.7,5.00,0.00,26.4,25.5,00.0,35.4,28.2,07.3,0000.0,0008.04,0002.99,0001.98
2022-03-15 06:37:00,,0830.7,4.99,0.00,26.4,25.5,00.0,35.3,28.1,07.3,0000.0,0006.52,0002.96,0001.96
2022-03-15 06:38:00,,0830.6,5.00,0.00,26.4,25.4,00.0,35.3,28.1,07.3,0000.0,0006.65,0002.97,0001.95
2022-03-15 06:39:00,,0830.6,5.00,0.00,26.3,25.4,00.0,35.3,28.1,07.3,0000.0,0006.85,0002.95,0001.94
2022-03-15 06:40:00,,0830.6,4.98,0.00,26.3,25.4,00.0,35.3,28.1,07.2,0000.0,0006.71,0002.91,0001.92
2022-03-15 06:41:00,,0830.6,5.01,0.00,26.3,25.4,00.0,35.3,28.0,07.2,0000.0,0006.82,0002.93,0001.90
2022-03-15 06:42:00,,0830.6,5.01,0.00,26.3,25.4,00.0,35.3,28.0,07.2,0000.0,0006.64,0002.89,0001.88
2022-03-15 06:43:00,,0830.7,4.99,0.00,26.3,25.4,00.0,35.3,28.0,07.2,0000.0,0007.18,0002.88,0001.87
2022-03-15 06:44:00,,0830.7,5.00,0.00,26.3,25.3,00.0,35.3,27.9,07.2,0000.0,0007.57,0002.90,0001.87
2022-03-15 06:45:00,,0830.6,5.00,0.00,26.3,25.3,00.0,35.3,27.9,07.2,0000.0,0007.73,0002.91,0001.85
2022-03-15 06:46:00,,0830.7,5.01,0.00,26.2,25.3,00.0,35.3,27.9,07.1,0000.0,0007.66,0002.85,0001.81
2022-03-15 06:47:00,,0830.7,4.99,0.00,26.2,25.3,00.0,35.3,27.9,07.1,0000.0,0006.77,0002.83,0001.79
2022-03-15 06:48:00,,0830.7,5.00,0.00,26.2,25.2,00.0,35.2,27.9,07.1,0000.0,0006.86,0002.86,0001.78
2022-03-15 06:49:00,,0830.7,5.00,0.00,26.2,25.3,00.0,35.2,27.9,07.1,0000.0,0006.54,0002.78,0001.76
2022-03-15 06:50:00,,0830.7,5.00,0.00,26.2,25.3,00.0,35.2,27.9,07.1,0000.0,0006.13,0002.74,0001.72
2022-03-15 06:51:00,,0830.7,5.00,0.00,26.2,25.2,00.0,35.2,27.9,07.0,0000.0,0006.51,0002.75,0001.70
2022-03-15 06:52:00,,0830.7,4.99,0.00,26.2,25.2,00.0,35.2,27.9,07.0,0000.0,0006.73,0002.68,0001.67
2022-03-15 06:53:00,,0830.6,5.01,0.00,26.2,25.2,00.0,35.2,27.9,07.0,0000.0,0006.79,0002.61,0001.65
2022-03-15 06:54:00,,0830.6,5.01,0.00,26.2,25.2,00.0,35.2,27.9,07.1,0000.0,0006.05,0002.50,0001.62
2022-03-15 06:55:00,,0830.5,4.98,0.00,26.1,25.2,00.0,35.2,27.8,07.0,0000.0,0005.35,0002.41,0001.59
2022-03-15 06:56:00,,0830.6,5.00,0.00,26.1,25.2,00.0,35.2,27.8,07.0,0000.0,0004.86,0002.29,0001.57
2022-03-15 06:57:00,,0830.6,5.01,0.00,26.1,25.2,00.0,35.2,27.8,07.0,0000.0,0004.73,0002.26,0001.56
2022-03-15 06:58:00,,0830.6,4.98,0.00,26.1,25.2,00.0,35.2,27.8,07.0,0000.0,0004.65,0002.19,0001.54
2022-03-15 06:59:00,,0830.6,5.01,0.00,26.1,25.1,00.0,35.1,27.8,07.0,0000.0,0004.81,0002.14,0001.52
